Location: Dortmund
(51.5019°N, 7.6520°E)
Time: 15:33:32
(UTC+01:00)

ISS - Visible Passes

Search period start: 23 November 2017 00:00
Search period end: 03 December 2017 00:00
Orbit: 402 x 407 km, 51.6° (Epoch: 23 November)

Date Brightness Start Highest point End Pass type
(mag) Time Alt. Az. Time Alt. Az. Time Alt. Az.
28 Nov -1.4 18:16:58 10° SSE 18:17:57 12° SSE 18:17:57 12° SSE visible
29 Nov -1.7 18:59:05 10° SW 19:00:32 21° SSW 19:00:32 21° SSW visible
30 Nov -2.3 18:07:14 10° SSW 18:09:52 22° SE 18:10:23 21° SE visible
30 Nov -0.5 19:42:43 10° WSW 19:43:02 12° WSW 19:43:02 12° WSW visible
01 Dec -1.6 17:15:48 10° S 17:17:42 15° SE 17:19:37 10° ESE visible
01 Dec -2.7 18:50:27 10° WSW 18:52:49 40° SSW 18:52:49 40° SSW visible
02 Dec -2.9 17:58:17 10° SW 18:01:21 37° SSE 18:02:33 26° ESE visible
02 Dec -0.8 19:34:22 10° W 19:35:12 17° W 19:35:12 17° W visible
